When you browse on this site, cookies collect data to enhance your experience and personalize the content and advertising you see.
Visit our Privacy Policy to learn more. By continuing to use the site, you agree to this use of cookies and data.
  • In Portugal
  • List of Countries
  • For 7 days
  • Water Temperature
  • Satellite Maps
  • Weather Map
  • Weather Widgets
  • user-avatar
    Login

    Hourly Weather Santiago del Estero

    Today, 23 May, Thursday

    Time Temperature Precipitation Wind Pressure Humidity
    00:00 +12°C° 0.2 mm 2 mps 751 mmHg 82%
    01:00 +12°C° 0.2 mm 2 mps 751 mmHg 82%
    02:00 +10°C° 0 mm 3 mps 751 mmHg 80%
    03:00 +10°C° 0 mm 3 mps 751 mmHg 81%
    04:00 +9°C° 0 mm 3 mps 750 mmHg 81%
    05:00 +9°C° 0 mm 3 mps 750 mmHg 81%
    06:00 +9°C° 0 mm 3 mps 750 mmHg 79%
    07:00 +9°C° 0 mm 2 mps 751 mmHg 78%
    08:00 +10°C° 0 mm 3 mps 751 mmHg 72%
    09:00 +13°C° 0 mm 2 mps 751 mmHg 64%
    10:00 +14°C° 0 mm 2 mps 751 mmHg 55%
    11:00 +16°C° 0 mm 2 mps 750 mmHg 46%
    12:00 +18°C° 0 mm 2 mps 750 mmHg 40%
    13:00 +19°C° 0 mm 2 mps 749 mmHg 33%
    14:00 +20°C° 0 mm 3 mps 749 mmHg 26%
    15:00 +19°C° 0 mm 2 mps 748 mmHg 29%
    16:00 +18°C° 0 mm 2 mps 748 mmHg 31%
    17:00 +18°C° 0 mm 1 mps 747 mmHg 34%
    18:00 +15°C° 0 mm 1 mps 747 mmHg 37%
    19:00 +13°C° 0 mm 0 mps 747 mmHg 40%
    20:00 +11°C° 0 mm 0 mps 747 mmHg 43%
    21:00 +11°C° 0 mm 1 mps 748 mmHg 43%
    22:00 +11°C° 0 mm 1 mps 748 mmHg 43%
    23:00 +10°C° 0 mm 2 mps 748 mmHg 43%

    Tomorrow, 24 May, Friday

    Time Temperature Precipitation Wind Pressure Humidity
    00:00 +10°C° 0 mm 2 mps 747 mmHg 45%
    01:00 +9°C° 0 mm 2 mps 747 mmHg 47%
    02:00 +9°C° 0 mm 2 mps 747 mmHg 50%
    03:00 +9°C° 0 mm 2 mps 746 mmHg 52%
    04:00 +8°C° 0 mm 2 mps 746 mmHg 54%
    05:00 +8°C° 0 mm 2 mps 746 mmHg 56%
    06:00 +9°C° 0 mm 2 mps 746 mmHg 55%
    07:00 +9°C° 0 mm 2 mps 746 mmHg 54%
    08:00 +10°C° 0 mm 2 mps 746 mmHg 53%
    09:00 +13°C° 0 mm 3 mps 746 mmHg 46%
    10:00 +17°C° 0 mm 3 mps 746 mmHg 38%
    11:00 +19°C° 0 mm 4 mps 746 mmHg 31%
    12:00 +20°C° 0 mm 4 mps 745 mmHg 29%
    13:00 +22°C° 0 mm 4 mps 744 mmHg 28%
    14:00 +23°C° 0 mm 5 mps 743 mmHg 26%
    15:00 +22°C° 0 mm 4 mps 743 mmHg 30%
    16:00 +21°C° 0 mm 3 mps 742 mmHg 34%
    17:00 +20°C° 0 mm 3 mps 742 mmHg 38%
    18:00 +18°C° 0 mm 3 mps 742 mmHg 40%
    19:00 +17°C° 0 mm 3 mps 742 mmHg 42%
    20:00 +16°C° 0 mm 3 mps 742 mmHg 44%
    21:00 +14°C° 0 mm 3 mps 742 mmHg 47%
    22:00 +14°C° 0 mm 3 mps 742 mmHg 49%
    23:00 +13°C° 0 mm 4 mps 742 mmHg 52%

    Day after tomorrow, 25 May, Saturday

    Time Temperature Precipitation Wind Pressure Humidity
    00:00 +13°C° 0 mm 3 mps 742 mmHg 55%
    01:00 +12°C° 0 mm 3 mps 741 mmHg 57%
    02:00 +12°C° 0 mm 3 mps 741 mmHg 60%
    03:00 +12°C° 0 mm 4 mps 741 mmHg 61%
    04:00 +11°C° 0 mm 4 mps 740 mmHg 63%
    05:00 +11°C° 0 mm 4 mps 740 mmHg 64%
    06:00 +12°C° 0 mm 4 mps 740 mmHg 64%
    07:00 +12°C° 0 mm 4 mps 740 mmHg 65%
    08:00 +12°C° 0 mm 4 mps 740 mmHg 65%
    09:00 +14°C° 0 mm 5 mps 740 mmHg 59%
    10:00 +16°C° 0 mm 6 mps 740 mmHg 53%
    11:00 +20°C° 0 mm 7 mps 740 mmHg 47%
    12:00 +21°C° 0 mm 7 mps 739 mmHg 44%
    13:00 +22°C° 0 mm 7 mps 738 mmHg 41%
    14:00 +24°C° 0 mm 7 mps 737 mmHg 38%
    15:00 +23°C° 0 mm 6 mps 737 mmHg 41%
    16:00 +22°C° 0 mm 4 mps 737 mmHg 44%
    17:00 +21°C° 0 mm 3 mps 737 mmHg 47%
    18:00 +20°C° 0 mm 3 mps 737 mmHg 50%
    19:00 +19°C° 0 mm 3 mps 738 mmHg 53%
    20:00 +18°C° 0 mm 3 mps 738 mmHg 55%
    21:00 +17°C° 0 mm 3 mps 739 mmHg 58%
    22:00 +16°C° 0 mm 3 mps 739 mmHg 60%
    23:00 +16°C° 0 mm 3 mps 739 mmHg 63%

    26 May, Sunday

    Time Temperature Precipitation Wind Pressure Humidity
    00:00 +14°C° 0 mm 3 mps 739 mmHg 65%
    01:00 +14°C° 0 mm 3 mps 739 mmHg 68%
    02:00 +13°C° 0 mm 3 mps 738 mmHg 70%
    03:00 +14°C° 0 mm 2 mps 738 mmHg 74%
    04:00 +13°C° 0 mm 2 mps 738 mmHg 77%
    05:00 +13°C° 0 mm 2 mps 738 mmHg 80%
    06:00 +13°C° 0 mm 2 mps 739 mmHg 79%
    07:00 +14°C° 0 mm 1 mps 740 mmHg 78%
    08:00 +14°C° 0 mm 1 mps 740 mmHg 77%
    09:00 +16°C° 0 mm 2 mps 740 mmHg 70%
    10:00 +18°C° 0 mm 2 mps 740 mmHg 63%
    11:00 +20°C° 0 mm 2 mps 741 mmHg 56%
    12:00 +23°C° 0 mm 2 mps 740 mmHg 53%
    13:00 +24°C° 0 mm 1 mps 739 mmHg 51%
    14:00 +25°C° 0 mm 1 mps 739 mmHg 48%
    15:00 +25°C° 0 mm 2 mps 739 mmHg 52%
    16:00 +24°C° 0 mm 2 mps 739 mmHg 55%
    17:00 +24°C° 0 mm 2 mps 739 mmHg 58%
    18:00 +21°C° 0 mm 2 mps 740 mmHg 61%
    19:00 +20°C° 0 mm 2 mps 740 mmHg 64%
    20:00 +19°C° 0 mm 2 mps 741 mmHg 66%
    21:00 +19°C° 0 mm 2 mps 741 mmHg 67%
    22:00 +19°C° 0 mm 2 mps 741 mmHg 68%
    23:00 +20°C° 0 mm 1 mps 742 mmHg 69%

    27 May, Monday

    Time Temperature Precipitation Wind Pressure Humidity
    00:00 +19°C° 0 mm 1 mps 741 mmHg 71%
    01:00 +19°C° 0 mm 1 mps 741 mmHg 74%
    02:00 +18°C° 0 mm 2 mps 741 mmHg 77%
    03:00 +17°C° 0 mm 2 mps 740 mmHg 81%
    04:00 +16°C° 0 mm 2 mps 740 mmHg 85%
    05:00 +15°C° 0 mm 2 mps 740 mmHg 89%
    06:00 +16°C° 0 mm 2 mps 740 mmHg 88%
    07:00 +16°C° 0 mm 2 mps 741 mmHg 87%
    08:00 +16°C° 0 mm 2 mps 741 mmHg 86%
    09:00 +18°C° 0 mm 2 mps 741 mmHg 79%
    10:00 +19°C° 0 mm 2 mps 741 mmHg 72%
    11:00 +21°C° 0 mm 2 mps 741 mmHg 65%
    12:00 +23°C° 0 mm 2 mps 741 mmHg 62%
    13:00 +24°C° 0 mm 3 mps 740 mmHg 59%
    14:00 +25°C° 0 mm 3 mps 739 mmHg 55%
    15:00 +24°C° 0 mm 3 mps 739 mmHg 58%
    16:00 +24°C° 0 mm 2 mps 739 mmHg 60%
    17:00 +23°C° 0 mm 2 mps 739 mmHg 62%
    18:00 +21°C° 0 mm 2 mps 740 mmHg 66%
    19:00 +20°C° 0 mm 2 mps 740 mmHg 70%
    20:00 +20°C° 0 mm 1 mps 741 mmHg 74%
    21:00 +19°C° 0 mm 1 mps 741 mmHg 78%
    22:00 +18°C° 0 mm 1 mps 742 mmHg 82%
    23:00 +18°C° 0 mm 1 mps 742 mmHg 86%

    28 May, Tuesday

    Time Temperature Precipitation Wind Pressure Humidity
    00:00 +16°C° 0 mm 1 mps 742 mmHg 89%
    01:00 +15°C° 0 mm 1 mps 742 mmHg 91%
    02:00 +15°C° 0 mm 1 mps 742 mmHg 93%
    03:00 +15°C° 0 mm 1 mps 742 mmHg 93%
    04:00 +15°C° 0 mm 1 mps 742 mmHg 94%
    05:00 +15°C° 0 mm 1 mps 742 mmHg 94%
    06:00 +15°C° 0 mm 1 mps 743 mmHg 93%
    07:00 +16°C° 0 mm 1 mps 743 mmHg 92%
    08:00 +16°C° 0 mm 1 mps 744 mmHg 91%
    09:00 +19°C° 0 mm 1 mps 744 mmHg 84%
    10:00 +20°C° 0 mm 1 mps 745 mmHg 76%
    11:00 +22°C° 0 mm 1 mps 745 mmHg 69%
    12:00 +23°C° 0 mm 2 mps 744 mmHg 62%
    13:00 +24°C° 0 mm 2 mps 743 mmHg 56%
    14:00 +25°C° 0 mm 2 mps 743 mmHg 49%
    15:00 +24°C° 0 mm 2 mps 742 mmHg 51%
    16:00 +24°C° 0 mm 2 mps 742 mmHg 53%
    17:00 +23°C° 0 mm 2 mps 742 mmHg 55%
    18:00 +21°C° 0 mm 2 mps 743 mmHg 59%
    19:00 +19°C° 0 mm 2 mps 743 mmHg 63%
    20:00 +18°C° 0 mm 2 mps 743 mmHg 67%
    21:00 +18°C° 0 mm 2 mps 743 mmHg 69%
    22:00 +18°C° 0 mm 2 mps 743 mmHg 71%
    23:00 +17°C° 0 mm 2 mps 743 mmHg 72%
    Show more